Location: Peebles
(55.6412°N, 3.1714°W)
Time: 17:39:40
(UTC+01:00)

USA 281 - Pass Details

Date: 30 January 2022
Orbit: 1070 x 1089 km, 106.0° (Epoch: 25 March)

Event Time Altitude Azimuth Distance (km) Brightness Sun altitude
Rises 05:14:40 0° 36° (NE) 3,903 6.7 -24.5°
Reaches altitude 10° 05:17:41 10° 24° (NNE) 2,946 5.8 -24.1°
Maximum altitude 05:22:44 24° 334° (NNW) 2,087 4.5 -23.4°
Enters shadow 05:23:34 24° 323° (NW) 2,115 4.4 -23.3°
